Regional Weather Roundup
Issued by NWS

Home | Current Version | Previous Version | Text Only | Print | Product List | Glossary On
Versions: 1 2 3 4 5 6 7 8 9 10 11 12 13 14 15 16 17 18 19 20 21 22 23 24 25 26 27 28 29 30 31 32 33 34 35 36 37 38 39 40 41 42 43 44 45 46 47 48 49 50
000
ASUS44 KOUN 010610
RWROK

WEATHER ROUNDUP FOR OKLAHOMA
NATIONAL WEATHER SERVICE NORMAN OK
100 AM CDT SAT AUG 01 2015

NOTE: "FAIR" INDICATES FEW OR NO CLOUDS BELOW 12,000 FEET WITH NO
      SIGNIFICANT WEATHER AND/OR OBSTRUCTIONS TO VISIBILITY.

OKZ001>007-009>012-014-015-017-010700-
NORTHWEST OKLAHOMA AND THE PANHANDLE

CITY           SKY/WX    TMP DP  RH WIND       PRES   REMARKS
GAGE           MOCLDY    73  71  93 CALM      30.15S
6HR MIN TEMP:  73; 6HR MAX TEMP:  81;

GUYMON         MOCLDY    71  67  87 S6        30.17F
ENID/WOODRING  CLEAR     72  70  94 CALM      30.09S
$$

OKZ016-021>023-033>039-044-045-010700-
SOUTHWEST OKLAHOMA

CITY           SKY/WX    TMP DP  RH WIND       PRES   REMARKS
LAWTON/REGL    CLOUDY    75  67  76 CALM      30.09R
6HR MIN TEMP:  72; 6HR MAX TEMP:  78;

LAWTON/FT SILL CLOUDY    73  69  89 N6        30.08R
FREDERICK      MOCLDY    74  72  93 N7        30.07R
CLINTON        CLOUDY    75  69  81 CALM      30.15R
HOBART         CLOUDY    74  69  85 E3        30.13R
ALTUS AFB      CLOUDY    74  68  81 NE3       30.11R
$$

OKZ018>020-024>031-010700-
CENTRAL OKLAHOMA

CITY           SKY/WX    TMP DP  RH WIND       PRES   REMARKS
OKLAHOMA CITY  MOCLDY    74  72  93 N5        30.11R
6HR MIN TEMP:  73; 6HR MAX TEMP:  76; 6HR PCP:  0.01;

OKC/WILEY POST PTCLDY    73  70  90 CALM      30.11R
OKC/TINKER AFB PTCLDY    74  71  89 E1        30.10R
STILLWATER     CLEAR     73  71  93 CALM      30.09S FOG
GUTHRIE        CLEAR     74  72  93 SW5       30.10S FOG
$$

OKZ008-013-054>072-010700-
NORTHEAST OKLAHOMA

CITY           SKY/WX    TMP DP  RH WIND       PRES   REMARKS
TULSA          MOCLDY    77  68  73 E5        30.07R
6HR MIN TEMP:  77; 6HR MAX TEMP:  85;

TULSA/JONES    PTCLDY    74  70  87 CALM      30.07S
PONCA CITY     CLEAR     77  72  84 S6        30.09R
BARTLESVILLE   PTCLDY    70  70 100 CALM      30.09S
MUSKOGEE       MOCLDY    75  68  78 CALM      30.08F
$$

OKZ032-040>043-046>053-073>077-010700-
SOUTH CENTRAL/SOUTHEAST OKLAHOMA

CITY           SKY/WX    TMP DP  RH WIND       PRES   REMARKS
ARDMORE/DWNTWN MOCLDY    79  68  69 E3        30.07S
MCALESTER      PTCLDY    73  69  87 CALM      30.08S
$$



USA.gov is the U.S. government's official web portal to all federal, state and local government web resources and services.